DW6279 Weather Reports


time (UTC)temp
F
wind
direction
speed
knots
gust
knots
rain 1hr
in
rain 24hr
in
rain mn
in
humidity
%
barometer
mb
20260507140516 54 0.0 0.0 0.00 0.08 0.08 66 1014.1
20260507135516 54 0.0 0.0 0.00 0.08 0.08 67 1014.1
20260507134516 54 0.0 0.0 0.00 0.08 0.08 68 1014.2
20260507133516 54 0.0 0.0 0.00 0.08 0.08 70 1014.4
20260507132516 54 0.0 0.0 0.00 0.08 0.08 70 1014.0
20260507131516 54 0.0 0.0 0.00 0.08 0.08 72 1014.1
20260507130516 54 0.0 0.0 0.00 0.08 0.08 77 1013.9
20260507125516 54 0.0 0.0 0.00 0.08 0.08 81 1013.9
20260507124516 54 0.0 0.0 0.00 0.08 0.08 84 1014.1
20260507123516 54 0.0 0.0 0.00 0.08 0.08 84 1014.2
20260507122516 53 0.0 0.0 0.00 0.08 0.08 84 1014.0
20260507121516 53 0.0 0.0 0.00 0.08 0.08 84 1014.0
20260507120516 53 0.0 0.0 0.00 0.08 0.08 84 1013.9
20260507115515 53 0.0 0.0 0.00 0.08 0.08 85 1013.9
20260507114516 53 0.0 0.0 0.00 0.08 0.08 86 1013.7
20260507113516 53 0.0 0.0 0.00 0.08 0.08 88 1013.6
20260507112516 53 0.0 0.0 0.00 0.08 0.08 89 1013.6
20260507111516 53 0.0 0.0 0.00 0.08 0.08 90 1013.4
20260507110516 54 0.0 0.0 0.00 0.08 0.08 90 1013.4
20260507105516 54 0.0 0.0 0.00 0.08 0.08 91 1013.6
20260507104516 54 0.0 0.0 0.00 0.08 0.08 91 1013.3
20260507103516 54 0.0 0.0 0.00 0.08 0.08 90 1013.2
20260507102516 54 0.0 0.0 0.00 0.08 0.08 90 1013.1
20260507101516 54 0.0 0.0 0.00 0.08 0.08 90 1013.0
20260507100516 54 0.0 0.0 0.00 0.08 0.08 90 1013.1
20260507095536 54 0.0 0.0 0.00 0.08 0.08 91 1013.0
20260507094516 54 0.0 0.0 0.00 0.08 0.08 91 1013.0
20260507093516 54 0.0 0.0 0.00 0.08 0.08 91 1013.0
20260507092516 54 0.0 0.0 0.00 0.08 0.08 91 1012.7
20260507091515 54 0.0 0.0 0.00 0.08 0.08 91 1012.8
20260507090516 54 0.0 0.0 0.00 0.08 0.08 91 1012.8
20260507085516 54 0.0 0.0 0.00 0.08 0.08 91 1012.8
20260507084516 54 0.0 0.0 0.00 0.08 0.08 90 1012.7
20260507083516 54 0.0 0.0 0.00 0.08 0.08 91 1012.8
20260507082516 54 0.0 0.0 0.00 0.08 0.08 90 1012.5
20260507081515 54 0.0 0.0 0.00 0.08 0.08 90 1012.3
20260507080516 54 0.0 0.0 0.01 0.08 0.08 90 1012.0
20260507075536 54 0.0 0.0 0.01 0.08 0.08 90 1011.9
20260507074516 55 0.0 3.5 0.01 0.08 0.08 90 1011.9
20260507073515 55 0.0 1.7 0.01 0.08 0.08 90 1011.7
20260507072516 56 0.0 0.0 0.01 0.08 0.08 91 1011.6
20260507071516 56 0.0 0.0 0.01 0.08 0.08 91 1011.7
20260507070515 56 0.0 0.0 0.00 0.07 0.07 91 1011.7
20260507065516 56 0.0 0.0 0.00 0.07 0.07 91 1011.7
20260507064516 56 0.0 0.0 0.00 0.07 0.07 90 1011.9
20260507063516 56 0.0 0.0 0.00 0.07 0.07 90 1011.9
20260507062516 57 0.0 0.0 0.00 0.07 0.07 90 1011.8
20260507061515 57 0.0 0.0 0.00 0.07 0.07 90 1011.6
20260507060516 57 0.0 0.0 0.01 0.07 0.07 89 1011.6
20260507055516 57 0.0 0.0 0.01 0.07 0.07 89 1011.9
20260507054515 57 0.0 0.0 0.04 0.07 0.07 88 1011.8
20260507053516 58 0.0 0.0 0.04 0.07 0.07 88 1011.9
20260507052536 58 0.0 0.0 0.07 0.07 0.07 87 1011.9
20260507051516 58 0.0 0.0 0.07 0.07 0.07 86 1011.5
20260507050515 58 0.0 0.0 0.06 0.06 0.06 85 1011.8
20260507045516 59 0.0 0.0 0.06 0.06 0.06 83 1012.4
20260507044515 60 0.0 0.0 0.03 0.03 0.03 82 1011.8
20260507043515 61 0.0 0.0 0.03 0.03 0.03 79 1011.7
20260507042516 61 0.0 0.0 0.00 0.00 0.00 78 1012.1
20260507041515 62 0.0 0.0 0.00 0.00 0.00 77 1012.0
20260507040516 62 0.0 0.0 0.00 0.00 0.00 77 1011.7
20260507035516 63 0.0 0.0 0.00 0.00 0.00 77 1011.3
20260507034516 63 0.0 0.0 0.00 0.00 0.00 76 1011.2
20260507033517 64 0.0 0.0 0.00 0.00 0.00 76 1011.3
20260507032517 64 0.0 0.0 0.00 0.00 0.00 75 1011.4
20260507031516 64 0.0 0.0 0.00 0.00 0.00 75 1011.3
20260507030517 64 0.0 0.0 0.00 0.00 0.00 75 1010.8
20260507025516 64 0.0 0.0 0.00 0.00 0.00 75 1010.8
20260507024517 65 0.0 0.0 0.00 0.00 0.00 76 1011.1
20260507023517 65 0.0 2.6 0.00 0.00 0.00 76 1010.9
20260507022516 65 0.0 4.3 0.00 0.00 0.00 76 1010.7
20260507021517 66 0.0 0.0 0.00 0.00 0.00 77 1010.8
20260507020516 66 0.0 0.0 0.00 0.00 0.00 78 1010.6
20260507015516 66 0.0 0.0 0.00 0.00 0.00 78 1010.3
20260507014516 67 0.0 0.0 0.00 0.00 0.00 79 1010.5
20260507013517 67 0.0 0.0 0.00 0.00 0.00 80 1010.7
20260507012516 68 248 1.7 10.4 0.00 0.00 0.00 81 1010.7
20260507011516 68 0.0 0.0 0.00 0.00 0.00 81 1010.5
20260507010516 68 0.0 0.0 0.00 0.00 0.00 81 1010.4
20260507005516 68 0.0 0.0 0.00 0.00 0.00 80 1010.7
20260507004517 68 0.0 0.0 0.00 0.00 0.00 80 1010.4
20260507003516 68 0.0 0.0 0.00 0.00 0.00 80 1010.2
20260507002516 69 0.0 0.0 0.00 0.00 0.00 79 1010.3
20260507001517 69 0.0 0.0 0.00 0.00 0.00 79 1010.0
20260507000516 69 0.0 0.0 0.00 0.00 0.00 79 1010.1
20260506235516 69 0.0 0.0 0.00 0.00 0.00 78 1010.1
20260506234516 69 0.0 0.0 0.00 0.00 0.00 78 1010.2
20260506233517 69 0.0 0.0 0.00 0.00 0.00 77 1009.8
20260506232516 69 0.0 0.0 0.00 0.00 0.00 77 1009.7
20260506231516 69 0.0 3.5 0.00 0.00 0.00 77 1009.6
20260506230516 69 0.0 3.5 0.00 0.00 0.00 77 1009.6
20260506225516 69 0.0 0.0 0.00 0.00 0.00 77 1009.3
20260506224516 69 180 0.9 6.1 0.00 0.00 0.00 77 1009.5
20260506223516 70 225 2.6 9.6 0.00 0.00 0.00 76 1009.5
20260506222516 70 135 0.9 3.5 0.00 0.00 0.00 76 1009.3
20260506221516 70 225 0.9 6.1 0.00 0.00 0.00 76 1009.3
20260506220516 70 203 0.9 5.2 0.00 0.00 0.00 76 1009.2
20260506215516 70 248 0.9 5.2 0.00 0.00 0.00 76 1009.3
20260506214516 70 225 1.7 5.2 0.00 0.00 0.00 75 1009.3
20260506213516 71 203 0.9 5.2 0.00 0.00 0.00 74 1009.3
20260506212516 71 248 1.7 9.6 0.00 0.00 0.00 73 1009.2
20260506211516 71 203 0.9 8.7 0.00 0.00 0.00 74 1009.1
20260506210516 71 225 1.7 6.1 0.00 0.00 0.00 75 1009.1
20260506205517 70 135 1.7 7.0 0.00 0.00 0.00 75 1008.8
20260506204516 70 248 2.6 8.7 0.00 0.00 0.00 75 1009.0
20260506203516 70 248 3.5 9.6 0.00 0.00 0.00 75 1008.7
20260506202516 70 135 0.9 7.8 0.00 0.00 0.00 75 1008.9
20260506201516 70 225 1.7 8.7 0.00 0.00 0.00 75 1009.0
20260506200516 70 270 2.6 8.7 0.00 0.00 0.00 75 1009.2
20260506195516 70 270 3.5 11.3 0.00 0.00 0.00 74 1009.1
20260506194516 70 135 0.9 8.7 0.00 0.00 0.00 75 1009.1
20260506193516 70 225 2.6 8.7 0.00 0.00 0.00 74 1009.1
20260506192516 70 135 0.9 7.0 0.00 0.00 0.00 75 1009.3
20260506191516 70 225 2.6 10.4 0.00 0.00 0.00 75 1009.2
20260506190516 69 203 0.9 8.7 0.00 0.00 0.00 78 1009.3
20260506185516 68 203 0.9 5.2 0.00 0.00 0.00 78 1009.3
20260506184516 68 203 1.7 7.8 0.00 0.00 0.00 79 1009.5
20260506183516 68 203 1.7 9.6 0.00 0.00 0.00 79 1009.6
20260506182516 68 180 3.5 11.3 0.00 0.00 0.00 79 1009.9
20260506181516 68 248 0.9 8.7 0.00 0.00 0.00 80 1009.6
20260506180516 67 225 1.7 7.8 0.00 0.00 0.00 82 1010.0
20260506175516 67 225 2.6 10.4 0.00 0.00 0.00 83 1010.0
20260506174516 66 225 2.6 9.6 0.00 0.00 0.00 84 1010.1
20260506173516 65 225 2.6 9.6 0.00 0.00 0.00 85 1010.0
20260506172516 65 225 2.6 9.6 0.00 0.00 0.00 86 1010.0
20260506171516 64 225 1.7 8.7 0.00 0.00 0.00 87 1010.0
20260506170516 64 248 3.5 10.4 0.00 0.00 0.00 88 1010.3
20260506165516 63 158 2.6 12.2 0.00 0.00 0.00 89 1010.3
20260506164516 63 203 1.7 7.8 0.00 0.00 0.00 90 1010.2
20260506163516 63 248 1.7 8.7 0.00 0.00 0.00 91 1010.4
20260506162516 62 203 3.5 10.4 0.00 0.00 0.00 91 1010.5
20260506161516 62 203 1.7 8.7 0.00 0.00 0.00 92 1010.4
20260506160516 62 180 3.5 8.7 0.00 0.00 0.00 92 1010.3
20260506155516 61 158 3.5 8.7 0.00 0.00 0.00 92 1010.5
20260506154516 61 158 4.3 11.3 0.00 0.00 0.00 92 1010.5
20260506153516 61 135 3.5 9.6 0.00 0.00 0.00 92 1010.8
20260506152517 61 203 2.6 10.4 0.00 0.00 0.00 92 1010.7
20260506151516 61 180 2.6 9.6 0.00 0.00 0.00 91 1010.7
20260506150516 61 135 1.7 7.8 0.00 0.00 0.00 91 1010.9
20260506145516 61 225 1.7 8.7 0.00 0.00 0.00 91 1011.4
20260506144516 61 203 1.7 9.6 0.00 0.00 0.00 91 1011.5
20260506143516 61 203 0.9 6.1 0.00 0.00 0.00 90 1011.3
20260506142516 61 203 1.7 7.8 0.00 0.00 0.00 90 1011.4
20260506141516 61 180 2.6 9.6 0.00 0.00 0.00 90 1011.4